Tracking 25709 objects as of 24-May-2022
HD Live streaming from Space Station
objects crossing your sky now

ATLAS H R/B

Track ATLAS H R/B now!
10-day predictions


NORAD ID: 17998
Int'l Code: 1987-043B
Perigee: 522.1 km
Apogee: 1,682.5 km
Inclination: 63.3 °
Period: 107.2 minutes
Semi major axis: 7473 km
RCS: Unknown
Launch date: May 15, 1987
Source: United States (US)
Launch site: AIR FORCE WESTERN TEST RANGE (AFWTR)

Note: This is a ROCKET BODY
aabbcc
Your satellite tracking list
Your tracking list is empty




NASA's NSSDC Master Catalog

Two Line Element Set (TLE):
1 17998U 87043B   22144.51402445  .00001478  00000-0  41861-3 0  9997
2 17998  63.3098 154.4651 0776380  96.4053 272.5889 13.43802833151170
Source of the keplerian elements: AFSPC